Home   Weather   San Antonio   Past weeks
Flag for USA

Past Weather in San Antonio, Texas, USA — Yesterday and Last 2 Weeks

Now
59 °F

Mostly cloudy.


Feels Like: 59 °F
Forecast: 68 / 54 °F
Wind: 5 mph from Northeast

Location: San Antonio International Airport

Current Time: Mar 20, 2019 at 11:04:05 am

Latest Report: Mar 20, 2019 at 9:51 am


Visibility: 10 mi

Pressure: 30.23 "Hg

Humidity: 69%

Dew Point: 49 °F

Location of San AntonioLocation

Past Weather in San Antonio — Graph

°F

San Antonio Temperature Yesterday

Maximum temperature yesterday: 67 °F (at 1:51 pm)
Minimum temperature yesterday: 46 °F (at 3:51 am)
Average temperature yesterday: 57 °F

High & Low Weather Summary for the Past Weeks

 TemperatureHumidityPressure
High86 °F (Mar 9, 2:51 pm)100% (Mar 12, 8:51 am)30.52 "Hg (Mar 12, 8:51 am)
Low32 °F (Mar 5, 8:51 am)19% (Mar 9, 4:51 pm)29.54 "Hg (Mar 13, 5:51 pm)
Average61 °F62%30.07 "Hg
* Reported Mar 5 8:51 am — Mar 20 9:51 am, San Antonio. Weather by CustomWeather, © 2019

Note: Actual official high and low records may vary slightly from our data, if they occured in-between our weather recording intervals... More about our weather records

Advertising

San Antonio Weather History for the Previous 24 Hours

Scroll right to see more
 ConditionsComfort  
Time TempWeatherWind HumidityBarometerVisibility
9:51 am
Wed, Mar 20
59 °FMostly cloudy.5 mph69%30.23 "Hg10 mi
8:51 am58 °FPartly sunny.7 mph72%30.20 "Hg10 mi
7:51 am56 °FBroken clouds.6 mph77%30.18 "Hg10 mi
6:51 am57 °FMostly cloudy.3 mph74%30.16 "Hg10 mi
5:51 am56 °FPassing clouds.5 mph77%30.15 "Hg10 mi
4:51 am57 °FMostly cloudy.5 mph74%30.14 "Hg10 mi
3:51 am57 °FMostly cloudy.5 mph74%30.15 "Hg10 mi
2:51 am58 °FMostly cloudy.7 mph72%30.16 "Hg10 mi
1:51 am58 °FMostly cloudy.7 mph72%30.17 "Hg10 mi
12:51 am57 °FMostly cloudy.6 mph72%30.19 "Hg10 mi
12:31 am58 °FMostly cloudy.8 mph72%30.23 "Hg10 mi
11:51 pm
Tue, Mar 19
58 °FPartly cloudy.9 mph70%30.19 "Hg10 mi
10:51 pm59 °FPartly cloudy.10 mph67%30.19 "Hg10 mi
9:51 pm59 °FMostly cloudy.7 mph64%30.18 "Hg10 mi
8:51 pm61 °FOvercast.10 mph60%30.16 "Hg10 mi
7:51 pm62 °FOvercast.9 mph54%30.15 "Hg10 mi
6:51 pm62 °FOvercast.8 mph52%30.15 "Hg10 mi
5:51 pm63 °FOvercast.9 mph47%30.15 "Hg10 mi
4:51 pm64 °FOvercast.13 mph50%30.15 "Hg10 mi
3:51 pm65 °FMostly cloudy.12 mph49%30.16 "Hg10 mi
2:51 pm66 °FMostly cloudy.13 mph47%30.18 "Hg10 mi
1:51 pm67 °FPartly sunny.9 mph45%30.21 "Hg10 mi
12:51 pm66 °FScattered clouds.7 mph47%30.23 "Hg10 mi
11:51 am65 °FPassing clouds.12 mph45%30.25 "Hg10 mi
Weather by CustomWeather, © 2019

See weather overview